Location: Nora Junction
(43.1400°N, 93.0163°W)
Time: 23:38:29
(UTC+00:00)

SL-12 R/B(2) - Pass Details

Date: 18 November 2025
Orbit: 1173 x 2175 km, 63.4° (Epoch: 14 December)

Event Time Altitude Azimuth Distance (km) Brightness Sun altitude
Rises 23:13:07 0° 207° (SSW) 4,124 7.6 -5.5°
Reaches altitude 10° 23:15:41 10° 205° (SSW) 3,222 7.0 -5.9°
Maximum altitude 23:23:23 76° 121° (ESE) 1,442 4.3 -7.2°
Drops below altitude 10° 23:32:47 10° 38° (NE) 3,884 6.1 -8.9°
Enters shadow 23:35:29 - 38° (NE) 4,791 6.6 -9.3°
